Idaho Falls, ID

8:48 AM MDT on August 20, 2017 (GMT -0600)
Fanning

Weather History for KIDA - June, 2014

Change the Weather History Date:

Saturday, June 7, 2014

  Actual Average Record
Temperature  
Mean Temperature 58 °F 58 °F  
Max Temperature 76 °F 73 °F 92 °F (1985)
Min Temperature 40 °F 44 °F 31 °F (1950)
Degree Days  
Heating Degree Days 7 7  
Month to date heating degree days 27 53  
Since 1 June heating degree days 27 53  
Since 1 July heating degree days 7237 7744  
Cooling Degree Days 0 0  
Month to date cooling degree days 1 0  
Year to date cooling degree days 2 2  
Since 1 June cooling degree days 1 0  
Growing Degree Days 10 (Base 50)    
Moisture  
Dew Point 37 °F    
Average Humidity 55    
Maximum Humidity 89    
Minimum Humidity 20    
Precipitation  
Precipitation T in 0.05 in 1.10 in (1977)
Month to date precipitation T 0.36  
Year to date precipitation 3.43 5.21  
Sea Level Pressure  
Sea Level Pressure 29.92 in    
Wind  
Wind Speed 8 mph (NNW)    
Max Wind Speed 26 mph    
Max Gust Speed 36 mph    
Visibility 10 miles    
Events      
T = Trace of Precipitation, MM = Missing Value Source: NWS Daily Summary

Daily Weather History Graph

Daily Weather History Graph

Search for Another Location

Airport or City:

Trip Planner

Search our weather history database for the weather conditions in past years. The results will help you decide how hot, cold, wet, or windy it might be!

Date:

Astronomy

Jun. 07, 2014 Rise Set
Actual Time 5:47 AM MDT 9:06 PM MDT
Civil Twilight 5:12 AM MDT 9:42 PM MDT
Nautical Twilight 4:26 AM MDT 10:28 PM MDT
Astronomical Twilight 3:29 AM MDT 11:25 PM MDT
Moon 3:19 PM MDT (6/7) 2:21 AM MDT (6/7)
Length of Visible Light 16h 30m
Length of Day
15h 19m
Waxing Gibbous, 68% of the Moon is Illuminated
Jun 7
Waxing Gibbous
Jun 12
Full
Jun 19
Last Quarter
Jun 27
New
Jul 5
First Quarter

Hourly Weather History & Observations

Time (MDT) Temp. Windchill Dew Point Humidity Pressure Visibility Wind Dir Wind Speed Gust Speed Precip Events Conditions
12:53 AM 50.0 °F - 43.0 °F 77% 29.90 in 10.0 mi North 8.1 mph - N/A   Clear
1:53 AM 46.9 °F - 41.0 °F 80% 29.91 in 10.0 mi North 6.9 mph - N/A   Clear
2:53 AM 46.0 °F 42.5 °F 39.9 °F 79% 29.93 in 10.0 mi NNW 6.9 mph - N/A   Clear
3:53 AM 46.0 °F 41.9 °F 39.0 °F 76% 29.94 in 10.0 mi North 8.1 mph - N/A   Clear
4:53 AM 46.0 °F - 37.9 °F 73% 29.94 in 10.0 mi Calm Calm - N/A   Clear
6:53 AM 44.1 °F 42.5 °F 39.9 °F 85% 29.98 in 10.0 mi North 3.5 mph - N/A   Clear
7:53 AM 50.0 °F - 39.9 °F 68% 29.96 in 10.0 mi North 6.9 mph - N/A   Clear
9:53 AM 62.1 °F - 37.0 °F 39% 29.97 in 10.0 mi East 5.8 mph - N/A   Clear
10:53 AM 64.9 °F - 39.9 °F 40% 29.96 in 10.0 mi North 6.9 mph - N/A   Clear
11:53 AM 68.0 °F - 39.0 °F 35% 29.95 in 10.0 mi North 4.6 mph - N/A   Partly Cloudy
12:53 PM 72.0 °F - 36.0 °F 27% 29.94 in 10.0 mi North 5.8 mph - N/A   Partly Cloudy
1:53 PM 73.0 °F - 30.0 °F 20% 29.93 in 10.0 mi WNW 4.6 mph - N/A   Scattered Clouds
2:53 PM 73.0 °F - 33.1 °F 23% 29.91 in 10.0 mi West 4.6 mph - N/A   Scattered Clouds
3:53 PM 73.9 °F - 37.0 °F 26% 29.90 in 10.0 mi Variable 5.8 mph - N/A   Clear
4:53 PM 75.0 °F - 32.0 °F 21% 29.88 in 10.0 mi SSW 9.2 mph - N/A   Scattered Clouds
5:53 PM 73.9 °F - 32.0 °F 21% 29.88 in 10.0 mi South 9.2 mph - N/A   Scattered Clouds
6:53 PM 75.9 °F - 33.1 °F 21% 29.85 in 10.0 mi South 5.8 mph - N/A   Scattered Clouds
7:53 PM 73.9 °F - 33.1 °F 22% 29.84 in 10.0 mi SSW 10.4 mph - N/A   Partly Cloudy
8:53 PM 70.0 °F - 34.0 °F 27% 29.86 in 10.0 mi West 11.5 mph 20.7 mph N/A   Mostly Cloudy
9:53 PM 59.0 °F - 43.0 °F 55% 29.92 in 10.0 mi North 18.4 mph 28.8 mph N/A   Partly Cloudy
10:53 PM 57.0 °F - 42.1 °F 57% 29.95 in 10.0 mi North 13.8 mph 27.6 mph N/A   Clear
11:53 PM 55.0 °F - 43.0 °F 64% 29.95 in 10.0 mi NE 8.1 mph - N/A   Partly Cloudy